Flag for Poland Weather past 2 weeks in Bydgoszcz, Poland

Now
73 °F

Scattered clouds.


Feels Like: 77 °F
Forecast: 52 / 84 °F
Wind: 1 mph from West

Location: Torun

Current Time: Aug 29, 2015 at 5:49:33 PM

Latest Report: Aug 29, 2015 at 5:00 PM


Visibility: 31 mi

Pressure: 30.25 "Hg

Humidity: 37%

Dew point: 45 °F

Location of BydgoszczLocation

Historic Weather in Bydgoszcz — Graph

°F

Bydgoszcz temperature yesterday

Maximum temperature yesterday: 71 °F (at 1:00 AM)
Minimum temperature yesterday: 60 °F (at 9:00 PM)
Average temperature yesterday: 67 °F

Past Weeks' High & Low Weather Summary

 TemperatureHumidityPressure
High89 °F (Aug 15, 4:00 PM)98% (Aug 29, 3:00 AM)30.37 "Hg (Aug 29, 3:00 AM)
Low46 °F (Aug 21, 5:00 AM)22% (Aug 18, 5:00 PM)29.75 "Hg (Aug 15, 6:00 PM)
Average70 °F51%30.05 "Hg
* Reported Aug 14 4:00 PM — Aug 29 4:00 PM, Bydgoszcz, Weather by CustomWeather, © 2015

Note: Actual official high and low records may vary slightly from our data, if they occured in-between our weather recording intervals... More about our weather records

Advertising

Bydgoszcz weather history for previous 24 hours

 ConditionsComfort  
Time TempWeatherWind HumidityBarometerVisibility
4:00 PM
Sat, Aug 29
76 °FScattered clouds.3 mph33%30.25 "Hg22 mi
2:00 PM74 °FScattered clouds.2 mph36%30.27 "Hg19 mi
11:00 AM67 °FScattered clouds.2 mph63%30.28 "Hg19 mi
10:00 AM65 °FPassing clouds.2 mph69%30.27 "Hg19 mi
9:00 AM61 °FSunny.1 mph81%30.26 "Hg19 mi
7:00 AM53 °FFog.1 mph98%30.24 "Hg6 mi
6:00 AM52 °FFog.1 mph98%30.22 "Hg5 mi
5:00 AM52 °FFog.1 mph98%30.21 "Hg5 mi
3:00 AM53 °FFog.1 mph98%30.18 "Hg4 mi
2:00 AM54 °FFog.1 mph95%30.17 "Hg2 mi
1:00 AM57 °FClear.2 mph92%30.16 "Hg16 mi
11:00 PM
Fri, Aug 28
60 °FClear.2 mph89%30.12 "Hg28 mi
9:00 PM60 °FPassing clouds.2 mph89%30.10 "Hg28 mi
8:00 PM65 °FPassing clouds.1 mph76%30.08 "Hg31 mi
7:00 PM68 °FOvercast.1 mph72%30.06 "Hg31 mi
6:00 PM68 °FOvercast.3 mph72%30.05 "Hg31 mi
5:00 PM70 °FOvercast.2 mph72%30.04 "Hg31 mi
Weather by CustomWeather, © 2015

See weather overviewHow to use our weather pages